Wind_Speed
10 10 8 8 5 5 6 7 10 9 9 14 8 16 15 10 9 8 6 7 8 8 12 14 12 13 18 18 14 18 19 20 21 20 23 23 22 23 23 23 24 26 27 26
6 8 7 7 8 9 7 8 7 11 12 17 14 20 6 10 8 9 9 9 8 9 10 15 18 19 20 23 16 13 16 18 20 19 20 20 21 22 22 21 25 23 26 30
9 5 8 2 7 11 10 5 9 13 21 16 9 5 6 9 9 7 6 9 10 9 8 9 18 24 25 24 20 10 11 15 18 15 18 20 22 21 21 24 24 25 26 27
6 7 5 5 6 10 7 9 15 17 12 4 7 6 2 9 8 5 9 9 8 8 9 11 19 22 26 27 33 12 11 14 16 14 14 17 20 21 25 25 27 28 27 24
4 5 8 5 5 6 5 12 20 20 16 12 8 3 4 9 9 12 11 10 10 11 13 13 18 22 26 25 23 19 19 17 17 16 14 16 17 20 25 27 28 29 28 27
4 3 4 6 12 9 9 14 23 14 7 2 12 6 4 5 5 5 8 9 9 9 9 12 20 24 25 26 28 20 22 21 16 19 18 18 17 20 23 27 29 28 29 30
4 4 4 8 8 5 16 10 5 5 1 6 21 10 7 9 6 7 10 9 8 8 7 8 9 17 21 26 27 25 26 25 17 19 23 24 18 22 25 28 27 28 27 30
5 1 7 6 4 6 10 4 2 6 4 13 13 3 3 7 6 8 8 8 9 9 8 7 11 18 18 22 23 24 23 24 25 25 26 25 24 25 28 25 27 28 29 30
7 1 1 6 1 3 6 6 5 6 10 9 4 5 10 17 22 15 18 14 12 10 10 8 14 18 20 21 23 24 25 26 29 29 26 25 28 29 26 29 28 30 31 30
3 6 1 4 4 5 2 2 4 3 5 6 7 22 9 23 26 20 16 16 14 11 11 10 13 19 23 20 24 26 26 27 27 27 27 26 28 31 31 28 30 31 31 31
6 3 1 9 5 7 3 4 4 5 4 7 10 7 17 22 21 20 16 17 14 12 11 9 15 21 20 22 24 27 27 24 25 26 28 29 30 29 29 30 29 31 33 33
6 4 4 11 10 7 6 8 6 2 7 7 10 17 10 21 23 21 16 14 16 15 14 14 18 19 22 25 25 24 26 26 27 28 28 29 30 29 30 30 31 34 34 31
8 2 5 1 3 2 6 6 10 10 6 15 10 12 16 20 21 23 24 19 13 18 20 17 14 14 19 24 25 25 25 26 30 32 30 30 31 31 29 32 34 34 34 31
3 3 3 4 10 9 15 17 9 7 7 13 13 21 18 16 17 19 24 19 18 18 20 17 13 19 23 25 24 25 27 28 29 31 31 31 32 31 31 32 33 33 34 34
4 3 6 9 15 15 15 18 12 10 11 7 17 19 11 14 21 17 16 20 20 19 19 18 18 20 24 24 25 27 29 30 30 30 31 33 32 33 32 33 32 31 35 31
4 3 9 10 10 16 17 11 16 16 15 14 17 19 13 14 18 19 19 17 17 18 21 21 19 24 25 26 27 29 30 32 30 30 30 33 32 31 31 26 28 31 32 35
3 4 5 3 15 18 2 11 11 12 13 14 19 13 19 20 18 18 22 12 17 20 22 21 20 25 27 29 30 31 33 32 33 31 33 26 31 32 31 30 33 34 35 35
4 5 3 5 9 4 5 10 13 16 17 20 9 17 19 20 19 17 13 11 20 23 23 20 28 27 31 32 32 32 34 32 31 31 30 32 28 30 31 31 31 33 33 36
3 3 3 2 5 12 3 18 17 18 23 11 18 22 22 22 20 14 13 19 22 20 28 31 30 34 34 33 34 34 33 32 28 29 29 27 28 29 30 29 30 30 31 33
1 2 3 4 1 4 10 18 16 17 11 22 22 21 21 22 16 16 22 24 26 32 33 31 35 34 33 36 35 34 31 29 30 27 29 28 26 27 26 27 29 27 27 29
2 2 2 5 3 6 13 18 16 8 10 25 19 20 20 14 14 21 24 26 32 34 32 37 33 33 34 37 31 28 34 30 28 27 27 26 25 25 23 25 25 25 29 17
1 1 2 3 2 4 21 17 14 11 15 18 20 19 20 20 21 21 22 21 30 30 34 36 33 33 38 35 36 33 29 30 29 27 25 23 22 22 20 21 24 24 5 12
2 5 3 4 5 15 11 15 12 14 16 18 19 19 19 19 20 21 20 21 26 31 34 34 36 40 36 39 33 32 33 31 28 24 23 21 20 18 19 19 21 16 14 14
1 4 1 4 4 10 16 12 17 16 18 20 17 17 17 17 18 20 18 20 26 31 31 36 38 36 39 38 37 33 31 29 23 20 19 15 14 15 18 18 11 16 16 17
4 3 4 6 10 18 7 15 16 19 20 19 26 20 17 16 18 15 17 23 28 31 34 36 36 38 37 38 35 35 32 27 19 14 12 8 11 13 15 12 19 19 15 16
2 2 2 6 10 10 16 19 22 17 19 19 14 16 23 17 14 23 21 27 29 33 37 36 39 38 39 35 33 31 22 19 6 3 5 5 8 10 10 23 27 25 22 28
Wind_Direction
40 62 39 9 34 323 274 312 307 343 319 337 281 287 277 270 135 121 90 58 44 18 13 43 18 3 356 351 11 8 354 353 351 356 353 343 340 336 331 329 333 334 332 328
90 57 14 338 29 343 323 304 331 299 334 315 294 290 332 53 62 56 61 37 27 24 9 349 354 352 356 347 349 356 349 350 351 352 347 340 338 333 332 331 330 331 323 322
71 36 339 6 44 356 340 23 326 300 319 284 314 290 119 85 89 90 107 53 29 19 345 350 354 345 348 338 332 325 343 346 336 337 334 331 331 328 330 330 327 325 322 318
58 28 354 30 38 0 314 13 315 300 313 307 10 289 328 131 114 139 65 45 11 5 352 349 347 348 346 335 328 331 344 330 319 320 317 321 321 321 318 318 317 319 319 320
75 29 2 26 359 341 292 325 290 285 281 288 292 340 99 147 85 51 35 19 13 10 353 342 349 345 341 332 324 334 326 309 303 310 298 297 301 308 311 311 311 313 317 315
81 86 40 359 322 297 298 312 294 267 233 247 39 359 267 58 61 55 27 18 8 352 344 350 356 348 336 332 333 319 310 298 297 302 303 291 287 297 301 303 303 310 312 314
185 104 103 8 328 342 0 347 333 353 241 268 12 342 61 85 67 19 12 7 345 344 356 353 347 344 344 344 341 340 337 335 322 305 308 302 288 294 291 294 297 304 307 310
345 290 14 22 42 313 318 358 346 298 334 299 324 295 78 122 54 17 7 359 352 346 348 343 345 335 332 330 330 332 330 333 330 323 317 317 302 292 290 290 301 300 302 303
348 329 317 78 339 5 1 47 299 285 262 264 251 317 334 340 353 7 357 358 344 357 350 342 340 328 333 333 334 331 328 328 323 314 318 323 324 314 304 303 301 304 303 303
41 289 354 307 265 169 227 218 21 290 310 309 305 309 302 344 339 348 352 354 353 355 355 339 331 328 322 336 336 332 328 323 322 327 324 321 317 314 310 306 305 302 302 307
346 216 293 323 21 29 13 353 350 339 309 291 304 289 342 309 336 335 7 346 349 344 333 320 322 320 326 337 333 329 325 327 329 324 323 320 315 309 310 308 307 307 305 304
38 316 302 312 87 85 75 27 359 12 305 300 284 287 309 340 346 349 346 345 343 340 340 329 319 335 340 333 327 326 324 329 329 325 319 313 311 313 310 308 307 303 301 300
348 346 317 195 111 134 21 354 327 298 288 284 289 291 322 1 351 344 341 321 344 340 329 321 316 336 334 326 323 324 329 330 328 319 315 311 309 307 307 308 303 302 301 306
270 291 292 267 300 327 312 310 298 275 272 283 295 321 351 353 346 344 318 328 337 339 323 333 338 336 329 323 321 328 323 321 317 313 311 306 306 305 306 306 308 309 310 308
26 286 315 322 301 294 295 334 348 4 347 341 331 334 353 349 321 307 313 323 341 329 324 333 328 322 322 322 324 319 316 315 314 309 308 303 302 303 305 307 308 313 309 307
67 287 322 302 309 336 314 0 357 355 354 336 334 325 2 323 313 323 332 347 331 318 324 324 317 320 318 317 314 313 313 313 314 310 307 303 304 305 307 320 326 318 317 312
347 326 334 288 344 298 70 22 356 346 332 330 334 345 327 320 324 328 326 333 303 326 318 316 319 317 316 315 317 313 310 312 311 307 301 315 322 319 317 318 319 314 313 313
328 347 335 301 335 14 19 22 6 346 328 323 3 326 321 325 319 318 315 277 323 320 316 318 313 317 318 315 314 315 313 311 310 311 311 311 313 311 311 315 315 312 315 313
15 8 340 313 337 277 270 24 4 345 317 8 338 332 326 326 319 316 326 324 314 310 313 313 315 318 316 318 316 313 312 312 314 310 304 308 311 308 310 310 307 314 316 313
116 152 118 334 311 307 16 3 350 324 292 0 335 323 329 328 324 320 324 317 312 314 312 315 320 317 319 318 315 318 321 316 312 313 310 311 304 301 302 304 306 316 314 316
22 16 224 268 262 262 10 353 342 333 322 320 324 322 321 319 309 308 312 310 311 311 319 320 321 319 319 318 325 319 312 314 312 311 310 306 304 303 303 303 311 316 316 338
120 77 264 345 280 301 356 331 354 315 312 316 319 316 312 309 307 311 310 309 313 322 323 324 322 323 319 325 325 312 311 314 310 309 306 303 304 306 308 307 312 324 54 93
213 190 197 173 267 307 307 335 331 334 320 316 308 307 306 310 311 311 311 315 325 323 323 327 327 319 327 322 321 314 312 310 307 305 301 302 308 314 309 313 325 352 74 80
353 87 254 1 243 314 331 324 322 329 317 314 316 314 310 311 313 314 317 325 322 325 330 326 324 324 319 322 318 314 310 305 300 296 296 304 308 313 320 325 355 82 83 91
250 33 309 306 328 322 305 317 322 324 317 315 314 311 315 311 309 319 327 326 327 329 326 325 330 321 320 321 319 319 316 312 298 295 298 313 315 322 333 54 97 92 94 105
67 28 309 310 328 313 312 321 325 322 313 312 321 316 312 318 332 334 327 329 331 329 328 333 326 328 323 323 321 321 331 347 1 331 338 329 330 346 69 87 81 86 98 103
Height
793 814 829 822 816 816 815 815 814 806 795 803 797 792 781 772 780 789 794 798 802 803 803 803 805 806 806 805 804 802 802 799 795 790 788 786 784 782 779 775 770 766 763 761
808 831 822 815 815 818 810 813 817 812 799 807 795 791 783 782 792 798 804 810 811 812 813 810 808 805 804 804 803 801 801 799 794 791 790 788 785 781 778 775 770 766 762 758
824 828 817 816 824 828 821 827 830 830 812 800 797 788 793 796 800 804 805 810 812 815 814 811 810 809 806 804 802 798 796 794 794 793 791 788 783 779 775 772 767 765 762 757
826 823 822 821 828 834 833 829 830 825 825 825 804 821 794 803 808 807 813 816 817 817 815 813 810 809 806 804 801 796 792 792 792 791 789 786 782 776 775 770 766 761 758 755
838 834 834 832 839 835 835 829 825 820 821 820 803 819 806 800 811 819 816 816 817 817 817 815 813 810 806 803 799 795 791 790 789 786 784 781 777 775 771 768 762 757 753 751
834 832 838 843 835 829 828 824 810 803 814 827 819 830 813 815 822 822 821 820 819 818 816 814 811 809 805 802 798 792 789 785 786 783 780 777 773 771 766 763 757 752 748 745
829 837 839 841 840 829 839 840 841 829 826 822 806 825 829 822 822 821 822 818 816 814 813 811 810 808 805 802 797 792 788 784 781 780 776 773 769 766 762 757 753 748 744 740
854 847 845 844 850 853 848 848 862 865 853 843 826 831 830 820 821 821 820 818 817 815 812 810 808 807 804 800 796 791 788 784 781 777 773 769 764 760 756 752 748 745 741 737
866 851 840 846 847 852 853 865 863 866 853 856 833 813 812 813 819 822 823 820 819 815 810 809 807 806 802 798 795 791 787 783 779 774 769 764 760 756 751 747 743 739 736 732
869 877 848 847 846 850 857 860 876 868 895 876 842 838 836 837 832 827 823 822 818 813 811 810 807 803 799 796 793 789 785 780 775 771 765 761 756 752 747 742 738 735 730 726
874 875 856 850 852 861 864 868 867 870 871 881 875 855 842 840 835 830 828 829 821 817 813 809 805 801 797 794 790 786 782 777 772 768 763 758 753 748 743 739 734 729 724 720
883 886 883 864 863 863 868 877 881 906 900 894 894 870 847 843 843 834 829 827 824 818 815 809 803 799 796 792 788 783 779 774 770 765 759 754 748 743 739 734 728 723 718 714
896 883 894 870 872 868 876 878 883 890 896 895 902 876 849 859 861 855 849 838 824 820 816 808 801 798 794 790 785 780 776 772 768 761 754 748 743 737 732 727 721 716 710 706
899 893 895 906 895 893 891 883 882 883 894 883 881 867 860 870 866 858 855 835 826 821 817 809 803 798 793 788 782 778 773 768 763 756 749 742 737 732 727 721 715 709 704 699
902 910 896 894 891 886 879 883 880 892 882 889 879 878 874 877 870 853 844 837 827 822 815 810 804 797 790 784 780 775 769 764 758 752 745 737 732 727 722 715 709 704 699 695
904 911 902 902 886 887 888 885 888 887 884 885 881 880 880 872 859 849 843 836 832 826 816 809 801 793 787 781 775 769 764 758 752 746 739 732 727 721 716 710 706 700 694 686
912 913 914 905 901 890 890 897 894 892 888 885 890 890 877 866 855 849 842 841 834 824 816 806 797 790 784 778 772 765 758 753 748 741 733 727 724 719 712 706 701 695 687 680
913 916 917 922 908 914 896 891 892 893 888 887 887 884 873 864 853 848 840 840 829 822 812 802 794 786 780 773 767 760 754 748 742 736 730 726 721 714 708 703 695 689 684 673
914 917 939 947 931 913 892 895 900 901 890 888 884 876 868 859 850 842 839 835 829 819 809 800 791 783 775 769 762 755 748 743 737 732 728 722 718 711 705 700 692 688 682 669
915 919 942 946 950 927 902 900 895 892 893 884 884 876 868 861 855 841 834 829 820 813 804 794 787 779 772 765 757 749 744 741 734 728 725 719 714 708 703 698 690 689 680 671
930 936 946 935 940 913 904 899 897 905 906 893 884 876 869 866 860 843 833 824 816 808 798 791 783 776 768 760 753 747 740 735 730 725 721 715 709 703 701 695 690 686 677 673
931 943 941 936 938 917 902 901 909 907 898 893 881 875 867 859 848 839 830 820 811 802 794 787 778 771 763 757 751 740 734 729 724 720 715 711 707 701 699 694 689 684 679 678
928 927 939 932 924 906 901 904 898 895 891 884 877 868 861 852 844 836 826 817 809 801 793 785 777 765 760 754 746 735 729 723 718 714 711 708 705 701 697 693 690 686 686 685
908 912 922 922 908 904 899 896 894 889 885 879 870 863 855 849 841 832 824 816 807 800 792 783 772 764 753 746 738 732 724 718 713 711 709 707 704 701 696 692 690 692 693 693
917 915 916 913 907 903 900 897 889 883 879 873 865 858 852 846 838 830 824 815 807 800 790 780 773 761 750 742 733 725 718 712 709 708 707 706 703 701 697 694 696 698 700 700
912 915 920 917 912 909 902 895 887 881 875 868 860 853 847 842 837 831 824 816 808 798 788 780 770 759 746 739 730 722 717 711 708 708 708 707 705 702 701 700 703 706 708 711